Deville, LA

1:49 AM CST on February 09, 2016 (GMT -0600)
Alexandria Esler Regional

Weather History for KESF - March, 2014

Change the Weather History Date:

Sunday, March 16, 2014

  Actual Average Record
Temperature  
Mean Temperature 57 °F -  
Max Temperature 68 °F 67 °F 84 °F (1963)
Min Temperature 46 °F 44 °F 30 °F (1962)
Degree Days  
Heating Degree Days 8    
Growing Degree Days 7 (Base 50)    
Moisture  
Dew Point 56 °F    
Average Humidity 82    
Maximum Humidity 94    
Minimum Humidity 60    
Precipitation  
Precipitation 0.26 in - - ()
Sea Level Pressure  
Sea Level Pressure 29.72 in    
Wind  
Wind Speed 10 mph (West)    
Max Wind Speed 18 mph    
Max Gust Speed 28 mph    
Visibility 8 miles    
Events Rain , Thunderstorm    
Averages and records for this station are not official NWS values.
T = Trace of Precipitation, MM = Missing Value Source: NWS Daily Summary

Daily Weather History Graph

Daily Weather History Graph

Search for Another Location

Airport or City:

Trip Planner

Search our weather history database for the weather conditions in past years. The results will help you decide how hot, cold, wet, or windy it might be!

Date:

Astronomy

Mar. 16, 2014 Rise Set
Actual Time 7:17 AM CDT 7:18 PM CDT
Civil Twilight 6:53 AM CDT 7:42 PM CDT
Nautical Twilight 6:25 AM CDT 8:10 PM CDT
Astronomical Twilight 5:57 AM CDT 8:38 PM CDT
Moon 7:32 PM CDT (3/16) 7:03 AM CDT (3/16)
Length of Visible Light 12h 48m
Length of Day
12h 00m
Full, 100% of the Moon is Illuminated
Mar 16
Full
Mar 16
Full
Mar 23
Last Quarter
Mar 30
New
Apr 7
First Quarter

Hourly Weather History & Observations

Time (CDT) Temp. Dew Point Humidity Pressure Visibility Wind Dir Wind Speed Gust Speed Precip Events Conditions
12:20 AM 63.0 °F 61.0 °F 93% 29.70 in 8.0 mi SE 11.5 mph 18.4 mph 0.02 in Rain , Thunderstorm Light Thunderstorms and Rain
12:29 AM 63.0 °F 61.0 °F 93% 29.68 in 3.0 mi SE 5.8 mph - 0.08 in Rain , Thunderstorm Heavy Thunderstorms and Rain
12:34 AM 63.0 °F 61.0 °F 93% 29.68 in 2.5 mi SE 10.4 mph - 0.11 in Rain , Thunderstorm Heavy Thunderstorms and Rain
12:38 AM 63.0 °F 61.0 °F 93% 29.69 in 3.0 mi SE 9.2 mph - 0.12 in Rain , Thunderstorm Heavy Thunderstorms and Rain
12:46 AM 63.0 °F 61.0 °F 93% 29.69 in 4.0 mi SSE 8.1 mph - 0.13 in Rain , Thunderstorm Light Rain
12:53 AM 64.0 °F 61.0 °F 90% 29.69 in 6.0 mi SSE 10.4 mph - 0.14 in Rain , Thunderstorm Light Rain
1:06 AM 64.0 °F 62.1 °F 93% 29.69 in 9.0 mi South 10.4 mph 19.6 mph 0.00 in Rain Light Rain
1:21 AM 64.9 °F 62.1 °F 90% 29.69 in 9.0 mi SSW 8.1 mph - 0.00 in Rain Light Rain
1:46 AM 64.9 °F 63.0 °F 93% 29.71 in 7.0 mi SW 10.4 mph - 0.01 in Rain , Thunderstorm Light Rain
1:53 AM 64.9 °F 63.0 °F 93% 29.71 in 8.0 mi WSW 10.4 mph - 0.01 in Rain , Thunderstorm Light Rain
2:19 AM 64.9 °F 63.0 °F 93% 29.71 in 1.8 mi West 6.9 mph - 0.07 in Rain Heavy Rain
2:29 AM 64.9 °F 63.0 °F 93% 29.71 in 3.0 mi West 6.9 mph - 0.09 in Rain Light Rain
2:42 AM 64.9 °F 63.0 °F 93% 29.71 in 10.0 mi West 9.2 mph - 0.09 in   Overcast
2:50 AM 64.4 °F 62.6 °F 94% 29.71 in 10.0 mi West 6.9 mph - 0.09 in   Overcast
2:53 AM 64.9 °F 63.0 °F 93% 29.71 in 10.0 mi West 6.9 mph - 0.09 in   Overcast
3:51 AM 64.4 °F 62.6 °F 94% 29.68 in 9.0 mi WSW 5.8 mph - N/A   Overcast
3:53 AM 64.0 °F 62.1 °F 93% 29.68 in 9.0 mi North - - N/A   Unknown
4:53 AM - - N/A% 29.67 in - North - - N/A   Unknown
5:53 AM 64.9 °F 63.0 °F 93% 29.70 in 7.0 mi West 8.1 mph - N/A   Partly Cloudy
6:53 AM 64.0 °F 62.1 °F 93% 29.71 in 6.0 mi West 6.9 mph - N/A   Partly Cloudy
7:06 AM 64.0 °F 62.1 °F 93% 29.72 in 8.0 mi West 9.2 mph - N/A   Mostly Cloudy
7:40 AM 64.0 °F 61.0 °F 90% 29.74 in 9.0 mi West 13.8 mph 20.7 mph N/A   Mostly Cloudy
7:53 AM 63.0 °F 59.0 °F 87% 29.74 in 8.0 mi West 11.5 mph - 0.00 in Rain Light Rain
8:53 AM 63.0 °F 55.9 °F 78% 29.72 in 10.0 mi WSW 18.4 mph 27.6 mph 0.01 in Rain Light Rain
9:53 AM 62.1 °F 57.9 °F 86% 29.70 in 10.0 mi WNW 6.9 mph - 0.01 in   Clear
10:53 AM 62.1 °F 57.0 °F 84% 29.78 in 10.0 mi West 9.2 mph - N/A   Partly Cloudy
11:53 AM 63.0 °F 57.0 °F 81% 29.75 in 10.0 mi West 6.9 mph - N/A   Partly Cloudy
12:53 PM 64.9 °F 55.9 °F 73% 29.71 in 10.0 mi WNW 11.5 mph 21.9 mph N/A   Partly Cloudy
1:53 PM 66.9 °F 55.0 °F 66% 29.68 in 10.0 mi WNW 12.7 mph 25.3 mph N/A   Mostly Cloudy
2:34 PM 64.9 °F 52.0 °F 63% 29.67 in 10.0 mi WNW 13.8 mph 25.3 mph N/A   Scattered Clouds
2:53 PM 64.9 °F 52.0 °F 63% 29.66 in 10.0 mi NW 12.7 mph 25.3 mph N/A   Partly Cloudy
3:13 PM 64.9 °F 52.0 °F 63% 29.66 in 10.0 mi NW 10.4 mph 19.6 mph N/A   Mostly Cloudy
3:20 PM 64.9 °F 52.0 °F 63% 29.66 in 10.0 mi NW 9.2 mph - N/A   Scattered Clouds
3:53 PM 66.0 °F 52.0 °F 60% 29.66 in 10.0 mi WNW 13.8 mph 21.9 mph N/A   Scattered Clouds
4:53 PM 64.0 °F 51.1 °F 63% 29.68 in 10.0 mi WNW 16.1 mph 27.6 mph N/A   Overcast
5:53 PM 59.0 °F 48.0 °F 67% 29.75 in 10.0 mi NW 15.0 mph 24.2 mph N/A   Overcast
6:53 PM 55.0 °F 46.0 °F 72% 29.77 in 10.0 mi NNW 11.5 mph 24.2 mph N/A   Overcast
7:53 PM 53.1 °F 44.1 °F 71% 29.81 in 10.0 mi NNW 10.4 mph - N/A   Overcast
8:53 PM 51.1 °F 42.1 °F 71% 29.84 in 10.0 mi NW 11.5 mph 18.4 mph N/A   Overcast
9:53 PM 50.0 °F 41.0 °F 71% 29.87 in 10.0 mi Variable 4.6 mph 20.7 mph N/A   Overcast
10:53 PM 48.0 °F 39.9 °F 74% 29.88 in 10.0 mi NW 10.4 mph 23.0 mph N/A   Overcast
11:53 PM 46.9 °F 41.0 °F 80% 29.90 in 10.0 mi NW 6.9 mph - N/A   Overcast